Location: Sungai Bunut
(2.6333°N, 113.7333°E)
Time: 17:44:33
(UTC+00:00)

Transit 4A - Pass Details

Date: 11 December 2023
Orbit: 870 x 973 km, 66.8° (Epoch: 04 March)

Event Time Altitude Azimuth Distance (km) Brightness Sun altitude
Rises 10:03:21 0° 212° (SSW) 3,631 12.0 2.4°
Reaches altitude 10° 10:05:58 10° 217° (SW) 2,695 11.5 1.8°
Maximum altitude 10:12:00 48° 290° (WNW) 1,251 9.1 0.4°
Drops below altitude 10° 10:18:05 10° 3° (N) 2,707 10.1 -1.0°
Sets 10:20:44 0° 9° (N) 3,650 10.7 -1.6°
